Wind_Speed
4 4 3 2 1 0 1 2 3 3 3 3 4 4 4 4 5 7 7 7 7 7 7 7 7 6 6 5 5 4 3 2 2 3 3 4 5 5 6 6 7 7 8 8 8 9 9 9 10 11 12 14 14 13 11 8 6 5 5 4 4 5 6 7 7 8 8 8 9 9 9 9 9 9 9 9 9 8 8 8 8 8 9 9 9 10
4 3 2 1 1 1 2 2 3 4 4 3 3 4 4 4 4 5 5 5 4 4 4 4 4 4 4 4 3 3 3 3 3 4 4 5 5 6 6 6 7 7 7 7 7 8 8 9 11 12 13 13 12 9 7 5 4 4 4 4 5 5 6 7 7 8 8 8 8 9 9 9 9 9 9 9 9 8 8 8 9 9 9 9 10 10
2 2 2 2 2 2 2 2 3 4 4 3 3 4 4 4 5 5 5 4 2 2 2 3 3 3 3 3 4 4 4 4 4 4 4 5 5 5 6 6 7 7 7 7 7 8 9 10 11 12 11 9 7 5 4 3 3 3 3 4 5 5 6 7 7 7 8 8 8 8 8 9 9 9 9 9 9 9 9 9 9 9 9 9 10 10
3 3 3 3 3 3 3 3 3 3 3 3 3 3 3 3 4 4 4 3 2 2 2 3 3 4 4 5 5 6 6 6 6 6 6 6 7 7 7 8 8 9 9 9 10 11 11 11 11 9 7 5 3 2 2 2 3 3 4 4 5 6 6 7 7 8 8 8 8 8 9 9 9 9 9 9 9 9 9 9 9 9 9 9 9 10
4 4 4 3 3 3 3 3 3 3 3 3 3 2 2 1 1 2 2 2 2 3 3 4 4 5 6 7 7 8 8 8 9 9 9 10 10 10 10 10 11 11 11 12 12 12 10 8 7 5 4 3 2 3 3 3 3 4 4 5 6 7 7 8 9 9 9 9 9 9 9 9 9 9 9 9 10 10 10 10 10 9 9 9 9 10
4 4 4 4 3 3 3 3 3 3 2 2 2 1 1 1 1 1 1 2 4 4 5 5 6 6 7 8 9 9 10 11 11 11 11 11 11 12 11 12 12 12 12 11 10 8 6 4 4 4 4 4 4 4 4 5 5 5 6 7 8 8 9 10 10 11 11 11 11 10 10 10 10 10 10 10 10 10 10 10 10 10 10 10 10 10
4 4 4 4 4 3 3 3 3 2 2 1 1 1 1 2 2 2 2 3 4 4 5 5 5 5 6 7 8 9 9 10 11 11 10 10 10 10 10 10 10 10 9 8 6 5 4 5 5 5 6 6 6 6 6 7 7 8 9 9 10 11 12 12 13 13 13 13 13 12 12 11 11 11 11 11 10 10 10 10 10 10 10 10 10 10
5 5 5 4 3 3 2 3 3 3 2 2 1 1 2 2 2 2 2 3 3 3 3 3 3 3 2 4 5 6 6 6 6 6 7 7 7 7 7 7 7 6 6 5 5 5 6 7 7 7 8 8 8 8 9 9 10 11 12 13 14 14 15 16 16 16 16 15 14 14 13 12 12 12 11 11 11 11 11 11 10 10 10 10 10 10
5 5 5 4 3 3 2 2 3 3 3 3 2 2 2 2 2 2 2 1 1 1 1 0 0 0 1 0 2 2 3 3 3 2 2 2 2 3 4 5 5 5 5 6 6 7 8 8 9 9 10 10 11 11 12 12 13 14 15 16 17 17 17 18 18 17 17 16 15 14 13 13 12 12 12 12 11 11 11 11 11 11 10 10 10 10
6 5 4 4 4 3 3 2 2 3 4 3 3 2 2 2 2 3 3 2 1 1 1 2 2 2 2 1 0 2 3 4 5 5 5 5 4 4 4 4 5 6 7 7 8 9 9 10 11 11 12 12 13 14 14 15 16 17 17 18 18 18 19 19 19 18 18 16 15 14 13 13 12 12 12 12 12 12 11 11 11 11 10 10 10 9
5 5 4 4 3 3 3 3 3 3 3 3 2 2 2 2 2 2 3 3 2 1 1 3 3 3 2 1 1 2 3 4 4 5 6 6 7 7 7 7 8 8 9 9 10 10 11 12 12 13 14 14 15 16 16 17 18 18 19 19 19 20 20 20 20 19 18 16 14 13 12 12 12 12 12 12 11 11 11 11 10 10 10 10 9 9
5 5 4 4 3 3 3 3 3 3 3 3 3 4 3 3 2 2 2 2 2 2 2 2 3 4 5 4 4 5 5 4 3 3 5 7 8 8 9 9 9 10 10 10 11 11 12 12 13 14 15 15 16 17 18 18 19 20 20 21 21 21 21 21 20 18 17 15 13 12 12 11 11 11 11 11 11 11 11 10 10 10 9 9 9 9
5 5 4 4 4 4 4 4 4 4 4 4 4 4 3 3 3 3 1 1 1 2 2 1 2 4 6 7 7 7 7 5 4 4 4 6 7 7 7 8 8 8 8 9 10 10 11 11 12 13 14 16 17 18 19 20 20 21 21 22 21 21 20 18 17 16 15 13 12 11 11 11 11 11 10 10 10 10 10 10 9 9 9 9 9 9
5 4 4 4 4 5 5 5 5 5 5 4 3 2 3 3 3 2 1 1 1 2 2 2 3 4 7 7 7 7 7 6 5 5 5 5 5 6 6 7 7 7 8 8 9 10 10 10 11 13 14 15 16 18 18 19 20 21 21 20 19 18 16 15 14 13 12 11 11 10 10 10 10 10 10 10 10 9 9 9 9 9 9 9 9 9
5 5 5 5 5 5 5 5 5 5 4 3 3 2 2 2 2 2 2 2 2 2 2 3 4 5 6 7 7 6 6 5 4 4 4 4 5 6 8 8 9 9 9 9 9 10 10 11 12 13 14 15 16 17 18 19 20 20 19 17 16 14 13 11 10 9 9 8 8 8 8 9 9 9 9 9 9 9 9 9 9 9 9 9 9 9
5 5 5 5 5 5 5 4 4 3 3 3 3 2 1 1 2 2 2 2 2 1 2 3 4 5 5 5 6 6 5 3 3 2 3 4 5 6 8 8 9 9 9 9 9 10 11 11 12 13 14 15 16 17 19 19 19 18 16 14 12 11 10 9 8 7 7 7 7 8 8 8 9 9 9 9 9 9 9 9 9 9 10 10 10 10
5 5 5 5 5 5 5 4 3 3 3 3 3 2 2 2 2 2 1 1 1 1 2 3 4 4 3 2 4 4 3 2 1 2 3 5 6 6 8 9 9 9 10 10 11 11 12 12 13 14 14 15 15 16 18 18 17 15 13 12 10 9 8 7 7 7 7 8 8 8 8 8 9 9 9 9 9 9 9 10 10 10 10 11 11 11
4 4 4 4 4 4 4 4 3 3 3 3 3 3 4 3 3 2 1 1 1 2 2 2 3 4 4 2 1 2 2 2 2 3 4 6 7 7 8 10 11 11 11 11 12 13 13 13 13 14 14 15 15 16 17 16 15 14 12 11 10 9 9 8 8 8 8 8 8 8 8 9 9 9 9 9 10 10 10 10 10 11 11 11 12 12
3 3 3 3 3 4 4 4 4 3 3 3 3 3 3 3 2 2 1 1 2 2 2 2 3 4 5 4 3 3 5 5 5 5 6 7 8 8 8 9 10 10 11 11 12 12 12 12 12 13 14 14 14 15 14 14 13 13 12 11 11 10 9 9 9 8 8 9 9 9 9 9 9 10 10 10 10 10 11 11 11 11 12 12 12 13
3 3 3 3 3 4 4 4 4 4 4 4 4 3 3 2 2 2 2 2 2 2 2 3 3 4 5 5 4 5 7 8 7 6 6 7 7 7 7 8 8 8 9 10 11 11 10 10 11 12 13 13 13 13 12 12 12 12 12 12 11 11 10 10 9 9 9 9 9 9 10 10 10 10 10 11 11 11 11 12 12 12 12 12 13 13
4 3 3 3 3 3 4 4 4 5 5 5 4 3 2 2 2 2 2 2 2 2 2 3 4 4 4 5 4 6 9 9 7 5 5 6 7 7 7 7 8 9 10 11 11 10 9 9 10 11 12 12 12 12 12 12 12 12 12 12 12 11 11 10 10 10 10 10 10 10 10 10 10 10 11 11 11 12 12 12 12 12 13 13 13 13
4 4 3 3 3 3 4 5 5 5 5 5 3 2 1 2 1 1 1 1 1 1 2 3 4 4 5 6 7 8 11 11 8 5 4 5 7 7 5 7 8 9 9 10 9 8 8 8 10 11 12 12 12 12 12 12 12 12 12 12 12 11 11 11 10 9 9 9 9 9 9 9 10 10 11 11 11 11 12 12 12 12 13 13 13 14
4 4 4 4 4 4 5 5 5 5 4 4 3 2 3 2 1 1 1 1 1 2 3 4 6 7 9 10 11 10 10 9 7 5 3 4 6 6 4 5 7 8 8 8 8 8 8 10 11 11 11 11 11 12 12 12 12 11 11 11 11 10 10 9 9 8 8 8 8 8 9 9 10 10 10 11 11 11 12 12 13 13 13 14 14 15
4 5 5 5 5 5 4 4 3 3 3 3 3 4 5 4 4 4 3 3 4 4 5 6 7 8 8 8 7 7 8 8 6 4 3 4 5 6 5 6 6 7 8 8 8 9 11 12 12 11 10 9 10 12 12 12 11 10 9 9 8 8 8 8 8 8 8 8 9 9 10 10 10 10 11 11 12 12 13 13 14 14 14 15 15 16
4 5 5 5 5 5 4 3 3 2 2 1 1 2 3 4 4 5 5 5 5 5 5 5 6 6 6 6 5 6 7 8 7 5 3 4 5 6 7 6 6 7 8 9 11 12 12 12 11 9 7 8 10 12 12 11 10 8 7 7 7 7 7 8 8 9 9 10 10 11 11 11 12 12 12 13 13 14 14 15 15 16 16 16 17 18
5 6 5 5 5 6 5 5 4 3 3 2 2 1 1 2 3 3 4 4 4 4 4 5 5 6 6 5 4 5 6 8 8 6 4 4 5 6 7 6 6 6 8 10 12 13 12 11 9 7 6 7 9 12 12 11 9 7 7 7 8 8 9 9 10 11 11 11 12 12 12 13 13 14 14 15 15 15 16 16 16 17 17 18 18 19
6 7 7 6 6 6 6 5 5 4 3 2 2 1 0 1 2 3 3 4 4 4 4 5 5 5 5 5 4 5 5 7 7 7 5 4 4 5 6 5 5 6 9 11 13 13 11 10 8 6 5 6 9 11 11 9 7 6 7 8 9 9 10 10 11 12 12 12 13 13 14 14 15 15 16 16 16 17 17 17 17 17 17 18 19 20
6 7 7 7 7 7 6 5 5 4 4 4 4 4 3 2 3 3 4 4 4 4 5 5 5 5 5 4 5 5 5 6 6 6 6 5 4 5 6 5 5 7 9 11 12 12 9 8 6 5 5 6 8 8 8 6 5 4 5 6 7 8 10 11 11 12 13 13 14 14 15 15 16 16 17 17 17 17 17 17 17 17 17 18 19 19
5 6 6 6 7 7 6 6 7 7 8 8 8 8 7 5 5 5 5 5 5 5 6 6 6 5 5 6 6 6 7 6 7 8 7 5 4 5 5 5 5 6 7 9 10 9 7 5 5 5 5 6 6 6 6 6 5 5 5 6 7 9 10 11 12 12 13 14 14 15 15 16 16 17 17 17 17 17 17 17 17 17 17 18 18 19
4 5 5 6 6 7 7 8 8 9 9 10 11 11 10 9 8 7 7 6 6 6 6 6 6 6 6 6 6 6 6 6 8 9 7 4 3 4 4 4 5 6 6 7 7 6 4 3 4 4 5 6 6 6 6 6 6 6 7 7 9 10 10 11 11 11 12 12 13 14 14 15 16 16 17 17 17 18 17 17 17 17 17 18 18 18
4 3 3 4 4 5 6 7 8 9 10 10 11 11 11 11 11 10 9 9 8 7 7 7 7 7 7 6 4 3 3 4 7 8 7 3 3 3 4 5 5 5 5 4 4 3 2 2 2 3 4 5 6 6 6 7 7 7 8 9 9 9 9 9 9 10 10 10 11 12 13 13 14 15 16 16 17 17 17 17 17 17 17 18 18 18
4 4 4 5 5 6 7 8 8 8 9 9 9 10 10 11 11 12 12 11 11 10 9 8 8 8 8 7 6 4 3 4 6 7 6 4 4 4 4 5 5 5 4 3 3 2 2 3 4 4 6 7 7 8 8 8 8 8 9 9 8 8 7 8 9 10 10 10 10 10 11 12 12 13 14 15 15 16 16 16 16 16 17 17 18 18
5 5 6 6 7 7 7 7 7 7 7 8 8 8 9 10 11 11 12 12 12 12 11 9 9 9 9 9 9 8 6 5 6 7 7 5 4 4 4 4 5 5 5 5 5 5 5 6 7 8 9 9 9 9 9 9 8 8 8 8 8 8 8 9 9 10 10 10 10 10 10 11 11 11 12 12 13 13 14 14 14 15 15 16 17 18
5 5 6 6 6 7 6 6 6 6 7 7 7 8 8 9 10 11 11 12 12 13 12 11 9 9 8 8 9 9 8 6 6 8 8 6 4 4 4 4 5 5 5 5 5 6 7 8 8 9 9 9 9 9 9 8 8 8 8 9 9 9 9 10 10 10 11 11 11 11 11 11 11 11 11 11 11 12 12 12 13 13 14 15 17 17
5 6 6 6 7 7 7 6 6 6 7 7 8 8 9 9 9 9 10 10 11 12 13 13 12 10 9 8 7 7 7 5 5 6 7 6 5 4 4 5 5 5 5 6 6 6 6 7 8 8 9 9 10 9 9 8 7 8 8 9 9 10 10 10 10 11 11 11 12 12 12 11 11 11 11 11 11 11 11 12 12 13 14 15 16 17
6 6 7 7 7 7 7 7 7 7 7 8 8 8 9 9 8 8 8 9 10 11 12 14 14 14 12 11 9 8 7 5 4 4 5 5 5 4 4 5 5 5 6 6 6 6 7 7 8 9 9 9 9 9 8 6 5 6 7 8 9 9 10 10 11 11 12 12 12 12 12 12 11 11 12 12 11 12 12 13 13 14 14 14 15 16
7 7 7 7 7 7 7 7 7 8 7 7 8 8 9 9 8 8 9 10 11 12 12 13 14 15 15 15 14 13 11 9 7 5 5 5 5 5 5 6 6 6 6 7 7 7 7 8 8 9 9 8 8 7 6 5 5 6 7 8 8 9 10 11 11 12 12 12 12 12 12 12 12 13 13 13 12 12 13 13 13 13 14 14 15 15
7 7 7 7 7 7 7 7 8 8 8 7 8 8 8 9 9 9 10 11 12 12 13 13 14 15 16 16 17 17 17 16 14 11 10 10 9 9 8 7 8 8 8 8 8 8 8 8 8 8 8 8 8 8 8 7 8 8 8 9 10 11 12 12 12 11 11 12 12 12 12 12 13 13 14 13 13 13 13 13 13 13 13 13 14 14
8 8 8 8 8 7 7 8 8 8 8 8 9 9 10 10 10 11 11 12 12 13 13 13 14 15 15 16 17 18 18 18 18 17 16 15 15 14 13 12 11 10 10 9 9 9 9 8 8 8 8 9 9 10 9 9 9 9 10 11 12 12 12 11 10 10 11 12 12 13 13 14 14 14 14 14 13 13 13 13 13 12 12 12 13 14
8 8 8 8 8 8 8 8 8 9 9 10 11 12 12 12 12 12 12 12 12 12 12 12 13 14 15 16 16 17 17 18 18 18 18 18 18 18 18 17 15 13 12 11 10 10 10 10 10 10 10 10 10 10 10 10 10 10 11 11 11 11 10 9 10 11 12 13 14 15 15 14 14 14 13 13 14 14 14 14 14 13 13 13 13 14
9 9 9 8 8 8 8 9 10 11 11 12 12 12 12 12 11 11 10 10 10 10 10 10 11 12 13 14 14 15 15 15 15 16 16 16 17 17 17 18 17 15 13 12 11 11 11 11 11 11 12 12 12 12 12 12 12 11 11 11 12 12 12 12 12 13 14 14 14 14 14 13 13 13 13 14 14 15 15 15 16 16 15 15 15 15
9 8 8 8 8 9 9 10 11 11 11 11 11 11 10 10 9 8 8 8 8 8 8 8 9 10 11 12 12 13 12 12 12 12 13 13 13 13 14 15 16 15 14 12 12 12 12 12 12 12 12 12 12 12 13 13 12 11 11 12 13 13 14 13 13 12 12 12 12 12 12 13 13 14 14 15 16 16 17 17 17 17 16 16 16 16
9 8 8 8 8 9 10 10 10 10 10 10 10 9 9 8 7 7 7 8 8 8 7 8 8 8 9 10 11 11 11 11 11 11 11 11 11 11 11 12 13 14 13 12 12 12 12 12 13 13 13 12 12 13 13 14 13 12 12 12 12 12 11 12 11 10 10 11 11 12 13 13 14 15 16 16 17 17 17 17 17 16 17 17 17 18
9 9 9 9 9 9 10 9 9 9 9 9 8 8 8 7 7 7 8 8 8 8 7 7 8 8 9 10 10 10 10 10 10 11 11 10 10 10 10 11 11 12 13 13 12 12 11 12 13 13 12 12 13 13 14 14 14 14 13 13 13 13 13 13 13 12 12 12 13 13 14 14 15 16 16 17 17 16 16 16 17 17 17 17 18 19
9 9 9 9 9 9 8 8 8 8 8 8 8 8 7 7 7 8 8 8 8 7 7 7 7 7 8 8 8 8 8 8 9 10 10 10 11 10 10 10 10 11 13 14 14 13 12 12 12 12 12 12 13 14 14 15 15 15 15 14 14 15 16 16 16 15 15 14 14 14 14 14 15 15 16 16 16 16 16 16 17 18 18 18 18 19
9 9 8 8 8 8 8 9 8 8 8 8 8 8 8 8 8 8 9 8 8 8 7 7 7 7 7 7 7 7 6 7 8 8 9 9 10 10 11 10 10 10 12 13 14 15 14 14 13 12 11 12 13 15 16 16 16 16 16 15 15 15 16 16 16 15 15 15 15 14 14 13 14 14 15 16 16 16 17 17 17 18 18 18 19 19
9 9 8 8 8 8 8 8 8 8 9 8 8 8 8 8 9 9 9 8 8 8 7 8 8 9 9 8 7 7 7 7 7 7 7 8 8 9 10 10 10 10 11 12 14 15 16 16 15 14 13 13 14 15 16 16 16 16 16 16 15 15 16 16 15 14 14 14 14 14 14 13 13 14 15 16 16 17 18 18 18 18 18 18 18 18
9 9 8 8 8 8 8 8 8 9 9 9 8 8 8 9 9 9 8 8 8 8 7 8 8 9 9 9 9 8 8 8 8 7 7 7 8 8 9 9 9 10 11 12 13 14 16 17 17 17 17 16 16 16 17 17 17 16 16 16 15 15 15 15 15 14 14 14 14 14 14 14 14 14 15 16 17 18 18 18 17 17 17 17 17 18
9 9 8 8 8 8 8 8 8 9 9 9 8 8 8 9 9 9 9 9 8 8 8 8 9 9 9 9 9 9 9 9 9 9 8 8 8 9 9 9 9 9 10 11 12 14 15 17 18 19 20 20 20 19 20 19 18 17 16 15 15 15 15 15 15 14 14 14 14 15 15 15 15 15 15 16 17 18 19 18 18 18 17 17 17 18
10 9 9 8 8 8 8 8 8 8 9 8 8 8 8 8 8 9 9 9 9 9 9 9 9 9 9 9 9 9 9 9 10 9 9 9 9 9 9 9 9 8 9 9 10 12 13 15 17 19 20 21 22 22 22 21 19 17 16 15 15 15 15 15 15 14 14 14 14 14 15 15 15 15 15 16 17 18 19 19 19 18 18 17 17 18
10 10 9 9 9 9 9 9 9 9 8 8 8 8 8 8 8 9 9 9 9 10 10 10 9 10 10 10 10 10 10 10 10 10 10 9 9 9 9 9 8 8 7 8 8 9 9 10 11 14 17 19 20 21 22 22 19 17 15 15 15 14 14 14 14 14 13 13 13 13 14 14 15 15 15 15 17 18 19 20 20 19 18 17 17 17
Wind_Direction
238 254 265 274 277 172 110 113 105 94 86 90 92 97 107 118 131 139 145 150 153 152 150 149 153 160 168 174 180 187 198 221 250 271 284 290 294 297 299 301 303 304 307 310 313 315 316 317 315 312 309 307 305 303 299 292 281 270 261 266 280 294 303 309 310 310 310 309 308 306 305 304 302 300 301 302 303 305 308 310 310 308 305 302 301 299
234 241 231 220 175 128 117 126 124 114 100 92 98 106 111 117 127 132 134 141 153 161 164 168 175 185 196 208 218 232 250 273 290 301 307 310 312 312 312 312 313 314 316 317 319 319 318 315 312 310 307 305 303 301 297 288 276 270 274 282 292 299 305 309 312 314 314 313 311 308 305 302 299 296 295 296 298 299 299 302 303 302 300 299 297 295
193 189 172 156 140 129 129 133 136 135 127 118 115 118 123 132 138 134 123 125 141 166 186 196 204 216 232 249 256 263 275 286 296 303 309 312 314 314 313 312 312 312 312 312 311 310 309 307 307 306 304 302 299 295 289 279 273 275 282 289 294 299 303 306 308 311 313 312 310 306 303 300 297 296 295 293 295 296 293 294 296 296 296 297 296 295
156 150 155 155 153 151 152 145 143 144 144 134 122 115 118 135 147 144 136 143 165 207 230 237 238 241 251 263 269 272 277 285 291 295 298 300 302 304 305 304 304 303 303 302 300 300 300 301 302 301 298 293 282 267 257 254 260 268 276 282 289 295 299 302 302 301 303 304 304 303 301 297 296 295 294 293 293 293 291 292 293 294 294 296 296 294
152 151 155 151 149 156 171 163 156 155 161 145 123 103 91 118 171 164 162 189 220 244 257 259 260 261 263 266 268 270 273 279 283 287 291 293 295 296 296 296 295 296 296 295 295 296 295 294 290 282 269 248 229 226 234 243 254 265 273 280 285 289 293 295 294 294 294 295 296 297 296 294 291 290 289 289 289 289 289 290 291 292 292 292 292 292
147 151 155 152 153 162 178 172 167 168 174 168 152 149 179 224 247 257 252 251 254 260 269 273 276 278 280 276 273 272 274 277 280 284 288 290 291 291 289 288 288 289 290 291 291 289 282 266 248 233 224 218 218 225 236 246 256 264 272 277 280 284 287 288 288 288 288 288 288 288 288 287 285 284 283 282 282 283 284 286 286 287 287 287 288 288
145 152 157 158 164 174 177 180 180 180 181 188 191 206 228 235 243 249 250 261 266 272 278 284 288 294 295 292 288 286 285 286 288 291 294 295 295 293 290 287 285 284 284 282 276 261 239 226 221 220 221 222 226 234 243 252 259 264 269 272 275 278 281 283 285 286 286 286 284 282 280 279 278 277 277 277 277 278 279 280 281 283 283 284 284 283
142 151 155 154 156 166 180 196 195 189 188 197 210 230 244 252 254 254 257 260 265 271 282 295 309 316 308 305 306 305 300 300 304 309 311 313 314 310 302 296 289 280 271 259 245 234 230 228 228 229 231 235 240 246 252 258 262 266 269 272 275 278 281 283 285 286 287 286 284 280 276 273 272 272 272 272 272 274 275 277 278 280 281 281 281 280
140 146 153 154 154 158 175 203 208 202 194 188 191 207 218 222 224 228 239 250 257 248 232 214 82 99 136 297 316 309 292 277 267 267 281 295 316 318 303 300 292 280 267 257 249 245 245 246 246 246 248 251 255 258 262 265 268 270 273 275 278 280 282 284 286 288 288 286 283 279 274 271 269 268 268 269 270 271 273 275 277 279 279 279 279 278
140 144 150 157 164 167 167 180 207 212 194 174 170 188 212 213 209 203 197 191 205 223 187 160 153 149 146 152 290 293 285 278 267 253 242 233 232 239 254 267 274 276 275 273 269 265 264 263 263 263 264 265 267 269 271 272 274 275 277 279 281 283 284 286 287 288 287 284 281 276 271 269 267 267 266 267 268 270 272 275 277 277 277 278 277 276
143 146 148 154 165 172 173 176 194 198 176 159 166 188 205 211 215 213 205 191 185 180 171 176 181 183 185 191 237 271 278 290 292 285 271 261 254 253 257 263 269 275 279 281 279 276 274 273 273 273 273 273 274 275 276 277 279 280 282 283 285 286 287 287 287 286 284 281 276 272 268 266 265 265 265 267 268 270 272 273 275 275 275 275 275 274
146 148 150 155 163 172 178 182 184 178 169 186 199 202 199 201 203 213 230 204 176 160 156 186 219 229 234 242 255 267 274 280 287 290 288 286 283 279 276 276 277 280 283 284 283 282 281 281 280 279 278 278 278 278 279 281 282 284 285 286 288 288 289 288 286 284 281 276 271 267 263 262 261 263 264 265 266 268 270 271 272 273 273 273 272 272
145 148 153 162 171 178 180 181 184 189 197 205 206 197 181 183 187 196 231 237 190 169 171 192 249 260 264 266 269 273 277 275 272 270 278 286 290 290 285 283 283 284 284 284 284 285 284 285 284 283 282 283 283 284 285 286 287 288 289 290 291 291 290 288 285 282 278 272 266 262 260 258 258 260 261 263 264 266 268 269 269 270 270 270 270 269
145 151 160 173 183 186 187 187 189 194 197 197 188 164 153 169 186 202 234 251 242 239 248 260 256 258 269 274 276 277 277 274 272 274 276 277 275 273 272 271 272 273 276 278 279 279 281 281 281 282 284 285 286 287 287 288 288 290 291 293 293 293 291 288 284 280 275 269 263 258 257 258 259 259 260 261 261 262 264 265 266 267 267 267 267 266
156 165 176 185 187 187 188 190 192 189 181 176 175 171 169 183 198 212 230 237 241 255 271 270 257 247 252 265 273 276 275 272 270 273 276 273 269 268 270 272 273 274 276 277 278 279 280 279 280 281 282 283 284 285 285 285 287 289 291 292 292 291 289 286 283 280 276 271 265 262 261 261 261 261 261 262 262 261 261 262 263 264 264 265 266 265
170 180 188 189 184 179 178 182 182 174 159 167 172 171 157 175 191 204 221 233 242 258 269 270 262 248 239 262 272 274 270 262 258 267 277 278 275 274 276 276 276 276 278 277 278 279 279 279 279 279 279 280 280 281 282 285 288 290 291 290 287 285 283 281 280 279 277 275 271 267 265 263 262 262 261 261 261 261 261 261 261 261 262 263 264 264
178 188 193 187 175 166 164 165 162 153 148 157 164 167 170 177 180 184 201 225 257 269 263 271 278 270 239 252 269 272 263 248 249 274 287 286 283 280 278 276 274 274 276 277 277 278 280 279 277 276 275 276 277 278 281 286 289 291 290 287 282 278 275 272 271 273 274 272 270 267 265 264 262 262 261 261 261 260 260 260 261 262 262 263 264 265
180 190 192 182 166 156 154 156 158 158 159 160 167 176 186 191 190 188 194 226 259 267 268 267 277 286 288 274 256 276 292 295 301 303 299 290 286 282 277 276 276 277 279 280 281 282 283 280 277 275 274 275 276 279 282 286 289 289 286 282 278 273 268 263 262 265 268 269 268 266 265 264 263 262 261 261 261 261 261 261 262 262 263 264 265 265
178 185 186 175 160 153 153 159 164 166 166 167 169 173 184 205 210 208 213 230 247 262 277 279 275 276 285 299 310 311 309 310 315 314 303 291 286 283 279 278 279 280 282 284 286 288 287 283 279 278 279 282 284 285 287 288 287 284 281 278 275 272 267 261 259 259 262 265 267 267 265 264 263 263 262 262 262 262 262 263 263 263 264 265 265 266
175 180 180 169 159 159 165 166 165 166 168 166 162 157 161 183 203 211 215 224 237 252 263 273 272 270 272 280 296 309 308 311 316 316 302 290 285 281 275 273 273 276 281 285 289 291 289 285 284 285 288 292 294 294 293 290 286 282 278 275 272 270 267 263 260 259 259 261 263 264 264 264 263 263 263 263 263 263 263 263 264 264 265 266 266 267
171 171 167 159 161 166 166 162 163 170 176 172 163 157 180 201 210 213 214 216 231 246 255 257 262 266 267 269 280 294 299 304 311 312 299 289 284 280 274 266 267 274 283 290 296 297 293 288 288 290 293 295 296 295 292 288 284 280 276 273 270 268 267 265 262 260 259 261 263 264 263 263 263 264 265 265 265 265 265 265 265 265 266 267 267 268
164 160 154 151 153 155 154 159 168 178 182 170 153 150 198 207 214 222 219 221 240 257 262 262 267 270 267 263 268 277 284 292 295 294 289 286 284 282 278 270 274 282 289 296 301 302 295 289 288 290 292 292 292 291 289 286 283 279 275 272 269 268 267 266 265 264 264 266 268 269 268 267 267 266 266 266 266 266 265 266 266 266 267 267 268 268
157 155 155 158 158 156 158 167 179 188 190 172 165 180 194 183 183 208 238 260 271 276 276 276 276 276 275 273 273 275 280 285 288 286 274 270 279 284 285 285 290 294 292 296 300 299 293 290 289 290 292 291 289 288 287 287 285 281 277 272 270 268 268 267 267 268 269 270 270 268 267 266 266 265 265 264 264 263 263 263 264 264 265 266 266 267
157 161 166 171 171 168 165 171 184 197 200 195 202 213 215 214 219 229 241 258 269 273 275 279 282 283 281 282 279 273 270 279 287 289 268 261 272 283 287 292 294 293 290 293 297 298 298 296 296 296 295 291 286 286 288 291 290 284 277 271 268 266 264 263 262 261 259 258 257 257 257 257 258 258 258 258 259 260 261 262 262 264 265 266 267 268
159 167 174 178 177 172 167 166 167 167 165 164 196 242 251 255 260 267 272 276 277 277 278 281 281 278 274 271 263 252 251 268 277 279 261 262 274 281 286 289 290 290 290 293 299 303 305 303 302 301 295 285 282 284 290 293 291 282 270 260 255 251 249 248 248 247 247 248 249 250 252 253 254 255 256 257 258 260 262 263 265 266 268 269 270 270
155 160 162 165 167 168 169 167 159 149 139 122 108 88 343 311 306 304 303 291 277 266 262 264 267 270 272 270 259 246 244 259 270 274 265 266 277 284 287 289 289 290 293 297 304 308 307 303 301 298 287 277 279 285 292 295 289 273 257 250 246 246 246 247 248 249 251 252 254 255 257 258 259 260 262 263 264 265 266 267 269 270 271 272 273 272
160 162 164 167 170 171 172 173 172 169 167 167 174 182 222 307 303 288 272 262 256 254 254 260 268 274 277 273 265 255 250 258 267 272 270 267 272 279 286 290 292 295 299 302 307 309 305 298 293 289 279 270 277 288 298 303 294 274 260 256 256 257 258 260 261 262 262 263 264 265 265 266 267 267 268 268 269 270 270 271 271 272 273 274 274 274
180 184 186 188 189 190 192 198 207 218 228 237 242 246 254 273 280 274 266 264 264 263 261 262 267 275 280 278 275 270 263 262 261 263 269 269 264 268 281 290 296 300 305 307 311 312 305 290 279 272 269 271 282 296 311 322 319 299 280 274 274 274 274 273 273 273 273 272 272 272 272 272 272 272 272 272 272 272 272 272 272 273 273 274 275 276
218 220 222 224 225 226 230 237 246 253 258 261 263 264 265 262 257 255 259 264 269 270 268 265 265 270 275 278 280 278 271 257 248 252 265 267 260 265 283 292 300 306 310 313 316 315 304 278 260 260 272 288 303 317 328 336 336 327 311 301 294 290 287 284 282 280 278 277 277 276 276 275 275 274 274 273 273 272 271 271 271 271 271 272 273 274
236 240 245 250 253 255 256 258 261 265 267 270 272 271 269 263 253 247 250 256 261 265 265 263 263 265 269 275 280 277 265 244 239 246 259 257 254 266 289 295 300 306 315 320 323 318 303 270 261 276 299 317 328 331 327 321 316 310 302 297 293 292 291 291 289 287 284 282 280 278 278 277 276 276 275 274 273 272 271 270 270 269 269 270 270 271
216 216 227 243 255 262 265 266 268 270 273 275 276 274 271 265 257 249 246 245 247 250 252 254 256 258 259 263 269 269 254 232 237 248 260 253 250 265 287 294 296 300 309 320 323 320 313 301 292 304 323 325 320 312 302 294 289 286 285 285 285 288 293 297 299 298 294 290 286 284 282 280 279 277 276 274 273 272 271 270 269 268 267 268 268 269
225 229 238 247 257 264 268 272 273 274 275 276 276 275 271 266 261 254 248 244 240 239 240 244 247 250 249 247 247 254 265 253 255 262 268 259 257 268 281 286 288 291 294 296 288 281 289 303 304 304 307 305 300 294 289 284 282 280 280 282 284 288 294 301 304 305 304 301 297 293 290 287 284 281 279 277 275 273 272 270 268 266 265 265 266 267
244 253 260 266 268 268 268 268 269 271 273 274 274 272 269 267 264 259 254 248 241 235 232 234 239 243 244 244 246 251 262 267 269 270 273 265 262 267 277 280 282 285 286 283 273 264 267 278 289 296 298 298 296 294 290 286 282 279 278 279 283 287 293 297 300 302 304 303 301 299 296 294 291 289 286 284 282 279 276 273 269 266 264 263 264 265
256 264 268 269 268 265 261 259 258 261 266 269 268 266 265 265 266 264 259 252 244 237 231 227 229 234 240 242 244 248 256 263 267 269 272 267 257 255 269 276 280 285 287 283 276 270 269 272 281 291 297 298 297 293 289 284 278 273 273 276 280 286 292 296 299 300 301 300 299 298 298 299 298 296 294 291 288 285 282 279 274 269 265 263 263 264
262 265 266 265 262 259 256 253 253 257 262 265 265 262 260 261 264 263 259 253 246 239 232 226 223 224 229 236 240 243 248 250 262 271 274 269 257 251 262 267 272 278 282 281 279 278 278 278 282 289 295 299 298 294 291 284 273 267 269 276 284 290 295 299 301 300 299 297 296 296 298 299 299 297 294 291 288 285 282 279 276 272 268 265 263 262
263 265 264 263 260 257 255 252 254 258 262 263 262 260 258 258 258 256 253 248 243 237 233 228 224 222 221 223 226 229 232 232 252 273 279 274 263 257 259 261 263 269 275 278 279 280 283 285 287 289 291 292 293 294 294 287 274 268 271 278 284 289 292 294 294 294 292 291 291 291 292 294 293 292 290 288 286 283 280 278 275 273 271 267 264 262
262 263 263 262 259 257 253 253 256 260 263 261 258 257 256 256 251 247 244 242 240 238 235 233 230 228 225 224 224 223 223 222 227 241 254 254 251 250 253 257 259 261 265 273 277 281 283 286 289 288 285 280 280 285 290 289 281 275 275 277 279 280 281 284 285 286 286 286 286 286 287 287 287 287 287 287 286 284 282 279 277 275 273 271 267 264
260 261 262 261 259 256 254 254 258 261 262 256 251 250 250 252 249 245 245 246 245 244 242 241 239 237 235 234 233 232 231 230 230 232 237 240 241 242 246 254 258 258 259 263 268 274 278 280 283 284 282 276 274 276 283 286 286 283 280 278 276 277 279 282 283 283 281 280 281 281 281 282 282 283 284 285 285 285 283 281 279 277 274 272 270 268
258 259 260 259 258 256 254 254 257 258 257 251 247 246 247 249 250 251 252 254 255 254 253 251 250 248 247 245 244 243 243 242 241 241 242 244 245 247 248 252 256 258 258 258 260 263 266 266 268 272 277 279 280 280 281 282 283 283 284 284 283 283 283 283 280 276 274 274 275 276 277 278 279 280 281 282 282 282 281 280 279 277 274 272 271 270
256 257 258 258 256 254 253 252 253 255 254 254 254 254 253 253 255 258 260 263 265 266 264 262 261 259 257 256 254 253 252 251 250 250 249 250 251 252 253 254 255 255 256 256 256 255 256 257 260 263 267 273 278 280 281 279 278 280 284 286 285 283 281 278 272 269 269 271 272 274 276 277 278 278 278 278 278 278 277 277 277 275 273 271 271 272
256 258 259 259 257 253 250 251 254 257 260 261 261 261 260 260 260 261 264 266 268 271 274 272 270 269 269 268 265 263 260 258 256 255 255 254 255 255 256 255 254 253 252 252 252 251 251 253 257 261 263 267 272 275 275 274 274 275 277 277 278 279 280 277 275 273 273 273 273 274 275 275 275 275 275 275 275 274 275 275 275 274 273 270 269 270
256 258 260 260 258 256 254 257 259 262 265 266 264 262 262 260 258 255 255 255 255 257 259 260 262 267 271 274 276 275 273 269 264 261 260 258 258 257 257 256 254 250 247 247 249 250 249 250 253 257 260 264 268 272 273 273 272 271 270 271 276 281 284 281 279 277 274 272 271 271 271 271 272 273 274 274 274 275 276 276 275 274 272 271 269 268
256 257 257 257 257 257 259 261 262 263 264 264 264 263 262 257 251 244 242 242 243 245 244 245 248 254 260 265 270 275 278 279 276 272 269 266 265 263 262 259 255 249 244 242 245 249 250 251 251 254 257 260 263 267 271 273 274 272 269 269 273 278 281 281 279 277 272 269 268 268 269 270 272 273 275 276 277 277 277 275 273 272 270 270 269 268
255 255 255 254 254 256 258 259 258 257 257 256 257 257 256 250 243 238 238 240 242 243 242 243 246 252 258 262 267 269 268 270 273 275 275 275 273 272 270 268 261 251 243 239 241 246 250 251 252 253 255 257 260 263 267 271 273 272 271 269 267 266 267 272 276 276 273 271 269 269 270 272 274 277 278 278 277 276 275 274 272 271 271 271 270 270
252 253 253 252 252 250 248 246 247 248 249 249 249 249 246 241 236 235 237 240 243 244 242 241 243 249 253 257 263 264 256 251 254 262 270 274 277 277 276 273 265 254 245 239 239 241 245 249 253 255 256 257 258 259 263 267 270 271 271 269 268 266 266 269 272 273 272 272 271 272 272 274 276 277 278 277 276 275 273 272 272 272 271 271 271 270
245 247 247 247 245 242 239 238 239 239 239 240 241 240 239 236 235 236 239 241 242 242 240 238 239 242 248 252 255 254 246 235 234 242 254 263 270 274 277 276 270 260 249 243 242 242 244 246 250 255 259 260 260 259 260 262 265 268 270 270 269 269 270 270 269 269 269 270 271 272 273 274 275 275 275 276 276 276 274 273 272 272 272 271 271 269
239 240 241 241 239 238 237 236 234 233 233 234 236 236 236 236 237 239 242 242 241 239 239 237 237 240 243 247 248 247 244 236 228 226 234 243 253 261 267 272 273 267 258 250 247 247 248 249 249 251 254 258 261 261 261 260 260 262 265 268 269 270 269 269 268 268 268 268 269 271 273 273 272 273 274 276 276 276 276 274 273 272 271 271 270 269
235 237 238 237 237 237 236 235 232 232 233 235 236 236 237 237 238 238 238 239 238 236 236 237 238 240 242 244 244 243 242 240 236 231 229 232 239 246 252 257 260 261 260 257 254 254 253 254 253 251 249 250 254 259 261 260 259 259 262 264 266 267 268 269 270 270 269 268 268 270 270 270 269 271 273 276 277 277 276 275 274 273 271 270 269 268
234 234 235 235 236 237 236 235 233 233 235 236 237 237 238 238 237 235 235 236 235 234 235 236 238 241 243 244 244 242 241 240 239 237 235 235 236 238 240 242 244 247 250 254 256 258 260 260 258 254 250 247 248 252 257 259 259 259 260 261 263 265 267 270 271 272 271 270 271 271 271 268 266 267 270 273 275 276 277 277 276 274 272 270 269 269
233 232 231 232 233 235 236 235 235 235 236 237 238 238 239 239 238 237 238 238 237 235 235 236 239 243 245 246 245 243 241 240 239 238 237 237 236 236 234 233 235 240 248 254 259 261 264 265 263 260 255 251 248 249 251 254 257 258 258 259 259 262 266 269 272 273 273 272 272 273 273 270 267 265 265 267 270 274 277 278 277 276 275 274 273 272
230 230 229 229 231 233 234 235 236 236 238 239 239 240 240 239 237 236 237 237 237 237 237 237 239 242 246 247 247 245 242 240 239 238 237 236 234 231 229 228 229 234 245 256 262 264 265 268 270 268 263 254 250 248 248 248 250 254 256 257 258 260 263 268 272 274 274 273 272 272 271 270 267 264 262 263 268 273 277 278 278 278 278 278 277 275
Height
824 824 824 825 825 825 825 825 825 825 825 825 826 826 826 825 825 825 825 826 826 827 827 827 827 827 827 827 828 828 828 828 829 829 829 829 830 830 830 830 831 831 831 831 831 832 832 832 832 831 831 831 831 832 832 833 833 834 834 835 835 835 835 836 836 836 836 836 836 836 836 836 836 836 836 836 836 836 836 836 836 836 836 836 836 836
824 824 824 824 825 825 825 825 825 825 825 825 826 825 825 825 825 825 826 826 827 827 827 827 827 827 827 827 827 828 828 828 828 829 829 829 829 830 830 830 830 830 830 831 831 831 831 831 831 831 830 830 831 831 832 833 833 833 834 834 835 835 835 835 835 835 835 835 835 835 835 835 835 835 835 835 835 835 835 835 835 835 835 836 836 836
824 824 824 824 824 825 825 825 825 825 825 825 825 825 825 825 825 826 826 826 827 827 827 827 827 827 827 827 827 827 828 828 828 828 829 829 829 829 829 830 830 830 830 830 830 830 830 830 830 830 830 830 831 831 832 832 833 833 833 834 834 834 834 834 834 834 834 834 834 834 834 834 834 834 834 834 835 835 835 835 835 835 835 835 835 835
823 824 824 824 824 824 824 824 825 825 825 825 825 825 825 825 825 826 826 826 827 827 827 827 827 827 827 827 827 827 827 827 828 828 828 828 829 829 829 829 829 829 830 830 830 830 830 830 830 830 830 830 831 831 832 832 832 833 833 833 833 833 833 833 833 833 833 833 833 834 834 834 834 834 834 834 834 834 834 834 834 834 834 834 834 834
823 823 823 824 824 824 824 824 824 825 825 825 825 825 826 826 826 826 826 826 826 826 826 826 826 826 826 826 826 827 827 827 827 828 828 828 828 828 828 829 829 829 829 829 829 829 829 829 830 830 830 830 831 831 831 832 832 832 832 832 832 832 832 832 832 832 833 833 833 833 833 833 833 833 833 833 833 833 833 833 833 833 834 834 834 834
823 823 823 823 824 824 824 824 824 825 825 825 825 825 826 826 826 826 826 826 826 826 826 826 826 826 826 826 826 826 826 827 827 827 827 827 827 828 828 828 828 828 828 828 828 828 829 829 830 830 830 830 830 830 831 831 831 831 831 831 831 831 831 831 831 831 832 832 832 832 832 832 832 832 832 832 832 833 833 833 833 833 833 833 833 833
822 823 823 823 823 824 824 824 824 825 825 825 825 825 825 826 826 826 826 826 826 826 826 826 826 826 826 825 825 825 826 826 826 826 826 826 826 827 827 827 827 827 827 827 828 828 828 829 829 829 829 829 830 830 830 830 830 830 830 830 830 830 830 830 830 830 830 831 831 831 831 831 831 831 831 831 832 832 832 832 832 832 832 832 832 832
822 822 823 823 823 823 824 824 824 824 825 825 825 825 826 826 826 826 826 826 826 826 826 826 826 826 826 825 825 825 825 825 826 826 826 826 826 826 826 826 826 826 827 827 827 828 828 828 828 828 829 829 829 829 829 829 829 829 829 829 829 829 829 829 829 829 829 830 830 830 830 830 830 830 830 830 831 831 831 831 831 831 831 831 831 831
821 822 823 823 823 824 824 824 824 824 824 825 825 825 826 826 826 826 826 825 825 825 825 826 826 826 826 825 825 825 825 825 825 826 826 826 826 825 825 825 826 826 826 826 827 827 827 827 828 828 828 828 828 828 828 828 828 828 828 828 828 828 828 828 828 828 828 828 828 828 828 829 829 829 829 830 830 830 830 830 830 830 830 830 830 830
821 822 822 823 823 823 824 824 824 824 824 824 825 825 825 826 826 826 825 825 825 825 825 825 825 826 825 825 825 825 825 825 825 825 825 825 825 825 825 825 825 825 826 826 826 826 827 827 827 827 827 827 827 827 827 827 827 827 827 827 827 827 827 827 827 827 826 827 827 827 827 827 827 828 828 828 828 829 829 829 829 829 829 829 830 830
821 822 822 823 823 823 824 824 824 824 824 824 825 825 825 825 825 825 825 825 825 825 825 825 825 825 825 825 825 825 825 825 825 825 825 825 825 825 825 825 825 825 825 825 826 826 826 826 826 826 826 826 826 826 826 826 826 826 826 826 826 826 825 825 825 825 825 825 825 825 825 826 826 826 827 827 827 827 827 828 828 828 828 828 828 829
821 822 822 822 823 823 824 824 824 824 824 824 825 825 825 825 825 825 825 825 825 825 825 825 825 824 825 825 825 824 824 825 825 825 825 824 824 825 825 825 825 825 825 825 825 825 825 825 825 825 825 825 825 825 825 825 825 825 825 825 824 824 824 824 823 823 823 823 824 824 824 825 825 825 825 825 826 826 826 826 827 827 827 827 827 828
821 821 822 822 823 823 823 824 824 824 824 824 824 824 824 824 824 824 824 825 825 824 824 824 824 824 824 824 824 824 824 824 824 824 824 824 824 824 824 824 824 824 825 825 825 825 825 825 825 825 824 824 824 824 824 824 824 823 823 823 823 822 822 822 822 822 822 822 822 823 823 823 824 824 824 825 825 825 825 825 825 826 826 826 826 827
820 821 821 822 822 823 823 823 823 823 823 824 823 823 823 824 824 824 824 824 824 824 824 824 824 824 823 823 823 824 824 824 824 824 824 824 824 824 824 824 824 824 824 824 824 824 824 824 824 824 823 823 823 823 823 822 822 822 822 821 821 821 820 820 820 820 820 821 821 821 822 822 822 823 823 823 824 824 824 825 825 825 825 825 825 826
820 821 821 821 822 822 822 822 822 823 823 823 823 823 823 823 824 824 824 824 824 824 824 824 824 824 823 823 823 823 823 823 823 823 824 824 824 823 823 823 823 823 823 823 823 823 823 823 823 823 822 822 822 822 821 821 821 820 820 820 820 820 820 820 820 820 820 820 820 820 821 821 821 822 822 822 823 823 823 824 824 824 824 825 825 825
820 820 820 821 821 821 821 822 822 822 822 822 822 823 823 824 824 824 824 824 824 824 824 823 823 823 822 822 822 822 822 822 823 823 823 823 823 823 823 822 822 822 822 823 823 822 822 822 822 822 821 821 821 820 820 820 820 819 819 819 819 819 819 819 819 819 820 820 820 820 820 820 821 821 821 821 822 822 822 823 823 823 823 824 824 824
820 820 820 820 820 821 821 821 821 822 822 822 822 823 823 823 823 823 823 823 823 823 823 823 823 823 822 822 822 822 822 822 822 822 823 823 823 823 822 822 822 821 822 822 822 821 821 821 821 820 820 820 820 819 819 818 818 818 818 818 818 818 818 818 819 819 819 819 819 820 820 820 820 820 820 821 821 821 821 821 822 822 822 822 823 823
819 820 820 820 820 820 821 821 821 821 822 822 822 822 822 822 823 823 823 823 823 823 823 823 823 823 822 822 821 821 821 822 822 822 822 822 822 822 822 821 821 821 820 820 820 820 820 820 820 819 819 819 819 818 818 817 817 817 817 817 817 817 817 818 818 818 818 819 819 819 819 819 820 820 820 820 820 820 820 821 821 821 821 821 822 822
819 819 820 820 820 820 820 821 821 821 822 822 822 822 822 822 822 823 823 823 823 823 823 823 823 822 822 822 821 820 821 821 821 821 821 821 821 821 821 820 820 820 820 820 819 819 819 819 818 818 818 818 817 817 817 816 816 816 816 816 816 817 817 817 817 817 818 818 818 818 818 819 819 819 819 819 819 820 820 820 820 820 820 820 820 821
819 819 819 820 820 820 820 820 821 821 821 821 821 822 822 822 822 822 822 822 822 822 822 822 822 822 822 822 822 820 820 820 821 821 821 821 820 820 820 820 820 819 819 819 818 818 818 818 817 817 817 816 816 816 815 815 815 815 815 815 815 816 816 816 816 816 817 817 817 817 818 818 818 818 818 818 819 819 819 819 819 819 819 820 820 820
819 819 819 819 820 820 820 820 820 820 820 820 821 821 822 822 822 822 822 822 822 822 822 822 822 822 822 822 821 821 820 820 820 820 820 820 820 820 820 819 819 819 818 818 818 817 817 817 816 816 816 815 815 815 815 815 814 814 814 814 815 815 815 815 815 815 816 816 816 816 817 817 817 817 817 817 818 818 818 818 818 818 818 818 819 819
818 818 819 819 819 819 819 819 819 819 820 820 821 821 821 822 822 822 822 822 822 822 822 822 822 821 821 821 821 820 820 820 820 820 820 820 819 819 819 819 818 818 817 817 817 817 817 816 816 815 815 815 815 814 814 813 813 813 813 813 814 814 814 814 815 815 815 815 815 815 816 816 816 816 816 817 817 817 817 817 817 817 817 817 817 817
818 818 818 818 818 818 818 818 819 819 820 820 820 821 821 821 821 821 821 821 821 821 821 821 821 820 820 820 820 820 819 819 819 819 820 820 819 819 819 818 818 817 817 817 816 816 816 815 815 815 814 814 814 813 813 812 812 812 812 812 813 813 813 813 814 814 814 815 815 815 815 815 815 815 816 816 816 816 816 816 816 816 816 816 816 816
817 817 817 817 818 818 818 818 819 819 819 820 820 820 820 820 820 820 820 820 821 821 820 820 820 820 820 819 819 819 819 818 818 819 819 819 819 818 818 818 817 817 816 816 816 815 815 815 814 814 814 813 813 812 812 812 811 811 811 811 812 812 812 813 813 813 813 814 814 814 814 814 814 815 815 815 815 815 815 815 815 815 815 815 815 815
816 816 817 817 817 818 818 818 819 819 819 819 820 820 820 820 820 820 820 820 820 820 820 820 820 820 819 819 819 819 818 818 818 818 818 818 818 818 817 817 817 816 816 815 815 815 814 814 813 813 813 813 812 811 811 811 811 811 811 811 811 811 812 812 812 812 812 812 813 813 813 813 813 813 813 813 813 813 813 813 813 813 813 813 813 813
816 816 816 817 817 817 818 818 818 819 819 819 819 819 820 820 820 820 820 820 820 820 820 820 820 819 819 819 819 818 818 817 817 818 818 818 818 817 817 817 816 816 815 815 815 814 814 813 812 812 813 812 811 810 810 810 810 810 810 810 810 811 811 811 811 811 811 811 811 812 812 812 812 812 812 812 812 812 812 812 812 812 812 812 811 811
815 815 816 816 816 817 817 817 818 818 818 818 819 819 819 819 819 820 820 820 820 820 820 819 819 819 818 818 818 818 818 817 817 817 817 817 817 817 816 816 816 816 815 814 814 813 813 812 812 812 812 812 811 810 810 810 810 810 810 810 810 810 810 810 810 810 810 810 810 810 811 811 811 811 811 811 811 811 811 811 811 811 810 810 810 809
815 815 815 815 816 816 817 817 817 817 817 818 818 818 818 819 819 819 819 819 819 819 819 819 819 818 818 818 818 818 818 817 816 816 816 816 816 816 816 816 816 815 815 814 813 812 812 812 812 812 811 811 810 810 810 809 809 809 809 810 810 810 810 810 810 810 810 810 810 810 810 810 810 810 810 810 810 810 810 810 810 809 809 809 808 808
815 815 815 815 816 816 816 816 816 817 817 817 817 817 817 818 818 818 818 819 819 819 818 818 818 818 818 818 817 817 817 817 816 815 815 816 816 816 815 815 815 815 815 814 813 812 811 811 811 811 811 810 810 810 809 809 809 809 809 809 809 809 809 809 809 809 809 809 809 809 808 808 808 808 808 808 808 808 808 808 808 808 808 807 807 806
815 815 815 815 815 815 816 816 816 816 816 816 816 816 816 817 817 817 817 818 818 818 818 818 818 818 818 817 817 817 816 816 815 815 815 815 815 815 815 815 815 815 815 814 813 812 811 811 811 810 810 810 810 809 809 809 809 809 809 809 809 809 808 808 808 808 808 808 808 807 807 807 807 807 807 807 807 806 807 807 807 807 806 806 805 805
815 815 815 815 815 815 815 815 815 815 815 815 815 815 815 815 816 816 816 817 817 817 817 817 817 817 817 817 817 816 816 815 815 815 815 815 815 815 815 815 815 815 815 814 814 813 812 811 811 810 810 810 810 810 809 809 809 809 809 808 808 808 808 808 807 807 807 807 806 806 806 806 806 805 805 805 805 805 805 805 805 805 805 804 804 804
814 814 814 814 814 814 814 814 814 814 814 814 814 814 814 814 814 815 815 815 815 816 816 816 816 816 816 817 816 816 815 815 814 814 814 815 815 815 815 815 815 815 814 814 814 814 813 812 811 810 810 810 810 810 809 809 809 808 808 808 807 807 807 807 807 806 806 806 805 805 805 805 805 804 804 804 804 804 804 804 804 804 803 803 803 802
814 813 813 814 814 814 813 813 813 813 813 813 813 813 813 813 813 813 813 814 814 814 815 815 815 815 815 815 815 815 815 815 814 814 814 814 814 814 814 814 814 814 814 814 814 814 813 812 811 810 810 810 809 809 808 808 808 808 807 807 807 807 806 806 806 806 805 805 805 804 804 804 804 803 803 803 803 802 802 802 802 802 802 802 801 801
813 813 813 813 813 813 813 813 813 813 812 812 812 812 812 812 812 812 812 812 812 813 813 814 814 815 815 815 815 815 815 815 814 813 813 813 813 814 814 814 814 814 814 813 813 813 812 812 811 810 810 809 809 808 808 808 807 807 807 806 806 806 806 805 805 805 805 804 804 803 803 803 802 802 802 802 801 801 801 801 801 801 801 800 800 800
812 812 812 812 812 812 812 812 812 812 812 811 811 811 811 811 811 810 810 811 811 811 812 812 813 813 814 814 814 814 814 814 813 812 812 813 813 813 813 813 813 813 813 813 813 812 812 811 811 810 810 809 808 807 807 807 807 806 806 806 805 805 805 805 804 804 804 803 803 802 802 802 801 801 801 801 800 800 800 800 800 800 800 799 799 799
811 811 811 811 811 811 811 811 811 811 811 811 810 810 810 810 810 810 810 810 810 810 810 811 811 811 812 812 812 813 813 813 813 812 812 812 812 812 813 813 813 813 813 813 812 812 812 811 810 810 810 809 808 807 806 806 806 806 806 805 805 805 804 804 804 803 803 802 802 801 801 801 800 800 800 800 800 800 799 799 799 799 798 798 798 797
811 811 811 810 810 810 810 810 810 810 810 810 810 810 809 809 809 809 809 809 809 809 809 810 810 810 810 810 811 811 811 811 812 812 811 811 812 812 812 812 812 812 812 812 812 812 811 811 810 810 809 809 808 807 806 806 806 806 805 805 805 804 804 803 803 803 802 802 801 801 800 800 800 799 799 799 799 798 798 798 797 797 797 797 796 796
810 810 810 810 810 810 810 809 809 809 809 809 809 809 808 808 808 808 808 808 808 808 808 808 809 809 809 809 809 810 810 810 810 810 810 810 810 811 811 811 811 811 811 811 811 811 811 811 810 809 809 808 807 807 806 806 805 805 805 804 804 804 803 802 802 802 801 801 800 800 800 799 799 798 798 798 797 797 797 796 796 796 796 795 795 795
809 809 809 809 809 809 809 808 808 808 808 808 808 808 807 807 807 807 807 807 807 807 807 807 807 808 808 808 808 808 808 809 809 809 809 809 810 810 810 810 810 810 810 810 811 811 810 810 810 809 808 807 806 806 805 805 805 804 804 803 803 802 802 801 801 801 801 800 800 799 799 798 798 797 797 796 796 796 795 795 795 795 795 794 794 793
808 808 808 808 808 808 808 807 807 807 807 807 807 806 806 806 806 806 806 806 806 806 806 806 806 806 806 806 806 807 807 807 807 808 808 808 808 809 809 809 809 809 809 810 810 810 810 809 809 808 808 807 806 805 805 804 804 804 803 802 801 801 800 801 800 800 800 799 799 798 798 797 797 796 796 795 795 795 795 794 794 794 793 793 793 792
807 807 807 807 807 807 806 806 806 806 806 805 805 805 805 805 805 805 805 805 805 805 805 805 805 805 805 805 805 805 805 805 806 806 806 806 807 807 807 807 807 808 808 808 808 808 808 808 808 807 807 806 805 805 804 803 803 803 802 802 800 800 800 800 799 799 799 798 798 797 797 796 796 795 795 795 794 794 794 793 793 792 792 792 791 791
806 806 806 806 806 805 805 805 805 805 805 805 805 804 804 804 805 805 805 805 805 805 805 805 805 804 804 804 804 804 804 804 804 805 805 805 805 805 806 806 806 806 807 807 807 807 807 807 806 806 805 805 805 804 803 802 802 802 801 800 800 799 798 798 798 798 797 797 796 796 796 795 795 794 794 793 793 792 792 792 791 791 791 790 790 790
805 805 805 805 805 805 804 804 804 804 804 804 803 803 803 803 804 804 804 804 804 804 804 804 804 804 804 803 803 803 803 802 803 803 803 804 804 804 804 804 805 805 805 805 805 805 805 805 805 805 804 804 804 803 802 801 800 800 800 800 799 799 797 796 796 796 797 796 796 795 795 794 794 793 793 792 791 791 791 791 790 790 789 789 788 788
804 804 804 804 804 804 803 803 803 803 803 803 803 803 803 803 803 803 803 803 803 804 804 804 804 803 803 803 802 802 802 802 802 802 802 802 802 803 803 803 803 804 804 804 804 804 804 804 804 803 803 803 803 802 801 800 799 799 798 798 798 798 797 795 795 795 795 795 795 794 794 793 793 792 791 791 790 790 789 789 788 788 788 787 787 786
803 803 803 803 803 803 803 802 802 802 802 802 802 802 802 802 802 802 802 802 803 803 803 803 803 803 802 802 801 801 801 801 801 801 801 801 801 801 802 802 802 802 802 802 803 803 803 803 802 802 802 802 801 801 800 799 798 797 797 797 796 796 795 795 794 794 794 794 793 793 793 792 792 791 790 790 789 788 788 788 787 786 786 786 785 785
801 801 801 801 802 802 801 801 801 801 801 801 801 801 801 801 801 801 801 802 802 802 802 802 802 802 801 801 801 801 801 801 800 800 800 800 800 800 800 800 800 801 801 801 801 801 801 801 801 801 801 801 800 799 798 798 797 796 795 795 795 795 794 793 793 793 793 792 792 792 791 791 791 790 789 788 788 787 786 786 786 785 785 784 784 783
800 800 800 800 800 801 800 801 801 801 801 801 800 800 801 800 800 800 800 800 801 801 801 801 801 801 800 800 800 800 800 800 800 800 800 800 799 799 799 799 799 800 800 800 800 800 800 800 800 800 800 799 798 797 796 796 796 795 794 794 794 793 793 792 792 792 792 791 791 791 791 791 790 789 788 787 786 786 785 784 784 784 783 783 782 782
799 799 800 800 800 800 800 800 800 800 800 800 800 800 800 800 800 800 800 800 800 800 800 800 800 800 799 799 799 799 799 799 799 799 799 799 799 799 799 799 799 799 799 799 799 798 798 798 798 798 798 798 797 795 794 794 794 794 793 793 792 792 791 791 791 791 791 790 790 790 790 789 789 788 787 786 785 784 783 783 782 782 782 781 781 781
798 798 798 799 799 799 799 799 799 799 799 799 799 799 799 799 799 799 799 799 799 799 799 799 799 799 799 798 798 798 798 798 798 798 798 798 799 799 799 798 798 798 798 798 798 797 797 796 796 795 795 795 795 793 792 792 792 792 792 791 791 791 790 790 789 789 789 789 789 788 788 788 788 787 787 786 784 782 781 781 781 780 780 780 780 779
797 797 797 797 797 798 798 798 798 798 798 798 798 798 798 798 798 798 798 798 798 798 798 798 798 798 798 797 797 797 797 797 797 797 797 797 797 798 798 798 798 798 798 797 797 796 796 795 794 793 792 792 792 791 791 790 790 791 791 790 790 790 789 789 788 788 788 788 787 787 787 786 786 786 786 785 783 781 780 779 779 778 778 778 778 777
795 795 795 796 796 796 796 797 797 797 797 797 797 797 797 797 797 797 797 797 797 797 797 797 797 797 797 796 796 796 796 796 796 796 796 796 796 796 797 797 797 797 797 797 796 795 795 794 792 791 790 789 789 789 789 789 789 789 789 789 788 788 788 788 787 787 787 786 786 786 786 785 785 784 784 783 782 781 779 777 777 776 777 777 777 776